星链-2305 (STARLINK-2305 )

导读 | 星芒AI

STARLINK-2305 是 SpaceX Starlink 卫星互联网项目中的一颗低轨通信卫星。该卫星属于第二代 Starlink 任务的一部分,旨在为全球用户提供高速、低延迟的互联网服务。它运行在约 550 公里的轨道高度,配备先进通信设备,支持宽带数据传输。STARLINK-2305 的发射有助于扩大 Starlink 网络覆盖范围,提升网络性能,并为偏远地区提供稳定连接。该卫星采用可再生太阳能供电,具备自动避撞功能,以确保太空安全。

基本信息
目录编号:
47989
目录名称:
STARLINK-2305
国际标识:
2021-024N
轨道中心:
EARTH
卫星名称:
星链-2305
卫星全名:
星链-2305 (STARLINK-2305 )
卫星状态:
已陨落 最后检测时间 2025-02-13
发射日期:
2021-03-24 UTC
国别 :
美国 (US)
星等 :
--
轨道信息
数据来源 国际轨道数据
星历时间: 2025-02-13T09:59:09+0800
轨道信息已过期306天
半长轴: 6532.069km
偏心率: 0.000349
轨道倾角: 53.039°
近地点辐角 306.065°
升交点赤经 159.740°
平近点角 172.557°
近地点: 151.654km
远地点: 156.214km
周期: 87.566分钟
每日圈数: 16.444727
详细信息
固有亮度:
5
最大亮度:
2.5
卫星平台:
Starlink V1.0
覆盖范围:
全球
运营商:
太空探索技术公司
运营商所在国:
美国
制造商(研发单位):
太空探索技术公司
制造商所在国:
美国
使用方式:
暂无
卫星简介
星链(Starlink)计划是由太空探索技术公司(SpaceX)提出的一个巨型低轨卫星互联网星座项目,计划在2019年至2024年间在太空搭建由约1.2万颗卫星组成的“星链”网络,其中1584颗将部署在地球上空550千米处的近地轨道,并从2020年开始工作。该卫星仍在工作。